星链-5645 (STARLINK-5645 )

导读 | 豆包AI

STARLINK-5645是美国太空探索技术公司(SpaceX)于2023年1月31日发射的星链(Starlink)低轨互联网卫星,归属于美国。作为星链星座扩张过程中的一颗组网卫星,它属于星链卫星互联网项目,该项目旨在构建全球低轨卫星互联网,为全球偏远地区、特殊场景提供高速低延迟的宽带互联网接入服务,此卫星也进一步充实了星链大规模低轨卫星星座的组网规模。

基本信息
目录编号:
55429
目录名称:
STARLINK-5645
国际标识:
2023-014AQ
轨道中心:
EARTH
卫星名称:
星链-5645
卫星全名:
星链-5645 (STARLINK-5645 )
卫星状态:
在轨 (已飞行1211 天)
发射日期:
2023-01-31 UTC
国别 :
美国 (US)
星等 :
--
轨道信息
数据来源 国际轨道数据
星历时间: 2026-05-25T21:24:16+0800
15小时前
查看轨道信息
半长轴: 6950.173km
偏心率: 0.0003039
轨道倾角: 69.999°
近地点辐角 267.005°
升交点赤经 250.750°
平近点角 93.076°
近地点: 569.923km
远地点: 574.149km
周期: 96.107分钟
每日圈数: 14.983367
详细信息
固有亮度:
5
最大亮度:
2.5
卫星平台:
Starlink v1.5
覆盖范围:
全球
运营商:
太空探索技术公司
运营商所在国:
美国
制造商(研发单位):
太空探索技术公司
制造商所在国:
美国
使用方式:
暂无
卫星简介
星链(Starlink)计划是由太空探索技术公司(SpaceX)提出的一个巨型低轨卫星互联网星座项目,计划在2019年至2024年间在太空搭建由约1.2万颗卫星组成的“星链”网络,其中1584颗将部署在地球上空550千米处的近地轨道,并从2020年开始工作。该卫星仍在工作。
2D轨道图
3D轨道图
轨道高度分析图
轨道倾角分析图
轨道综合分析图
查看轨道综合分析图